Flag for U.S.A. Weather past 2 weeks in Leesburg, Virginia, U.S.A.

Now
68 °F

Clear.


Feels Like: 68 °F
Forecast: 65 / 87 °F
Wind: 5 mph from South

Location: Leesburg / Godfrey

Current Time: May 26, 2015 at 3:01:56 AM

Latest Report: May 26, 2015 at 2:15 AM


Visibility: 10 mi

Pressure: 30.20 "Hg

Humidity: 73%

Dew point: 59 °F

Location of LeesburgLocation

Historic Weather in Leesburg — Graph

°F

Leesburg temperature yesterday

Maximum temperature yesterday: 86 °F (at 1:15 PM)
Minimum temperature yesterday: 57 °F (at 6:15 AM)
Average temperature yesterday: 74 °F

Past Weeks' High & Low Weather Summary

 TemperatureHumidityPressure
High90 °F (May 18, 5:15 PM)100% (May 11, 2:55 AM)30.49 "Hg (May 11, 2:55 AM)
Low45 °F (May 14, 5:15 AM)27% (May 24, 3:55 PM)29.85 "Hg (May 19, 6:35 PM)
Average68 °F69%30.16 "Hg
* Reported May 11 1:15 AM — May 26 1:55 AM, Leesburg, Weather by CustomWeather, © 2015

Note: Actual official high and low records may vary slightly from our data, if they occured in-between our weather recording intervals... More about our weather records

Advertising

Leesburg weather history for previous 24 hours

 ConditionsComfort  
Time TempWeatherWind HumidityBarometerVisibility
1:55 AM
Tue, May 26
68 °FClear.8 mph73%30.20 "Hg10 mi
1:35 AM70 °FClear.7 mph73%30.20 "Hg10 mi
1:15 AM70 °FClear.3 mph73%30.20 "Hg10 mi
12:55 AM70 °FClear.No wind73%30.21 "Hg10 mi
12:35 AM70 °FClear.5 mph73%30.21 "Hg10 mi
12:15 AM72 °FClear.6 mph69%30.21 "Hg10 mi
11:35 PM
Mon, May 25
72 °FClear.7 mph69%30.21 "Hg10 mi
11:15 PM72 °FClear.8 mph69%30.21 "Hg10 mi
10:55 PM73 °FClear.7 mph65%30.21 "Hg10 mi
10:15 PM73 °FClear.9 mph65%30.21 "Hg10 mi
9:55 PM75 °FClear.10 mph61%30.21 "Hg10 mi
9:35 PM77 °FClear.13 mph57%30.21 "Hg10 mi
9:15 PM77 °FSunny.13 mph57%30.21 "Hg10 mi
8:55 PM77 °FSunny.13 mph57%30.20 "Hg10 mi
8:35 PM79 °FSunny.13 mph54%30.20 "Hg10 mi
8:15 PM79 °FSunny.14 mph54%30.19 "Hg10 mi
7:55 PM81 °FSunny.14 mph51%30.20 "Hg10 mi
7:35 PM81 °FSunny.14 mph51%30.20 "Hg10 mi
7:15 PM82 °FSunny.17 mph48%30.20 "Hg10 mi
6:55 PM82 °FSunny.15 mph48%30.19 "Hg10 mi
6:35 PM82 °FSunny.14 mph48%30.19 "Hg10 mi
6:15 PM84 °FSunny.18 mph45%30.19 "Hg10 mi
5:55 PM84 °FSunny.15 mph45%30.19 "Hg10 mi
5:15 PM86 °FSunny.14 mph43%30.20 "Hg10 mi
4:55 PM86 °FSunny.13 mph46%30.20 "Hg10 mi
4:15 PM86 °FScattered clouds.14 mph46%30.20 "Hg10 mi
3:55 PM86 °FScattered clouds.22 mph43%30.20 "Hg10 mi
3:35 PM86 °FScattered clouds.16 mph43%30.21 "Hg10 mi
3:15 PM86 °FSunny.13 mph43%30.21 "Hg10 mi
2:55 PM86 °FSunny.20 mph43%30.21 "Hg10 mi
2:35 PM86 °FSunny.18 mph46%30.21 "Hg10 mi
2:15 PM86 °FSunny.17 mph46%30.22 "Hg10 mi
1:55 PM86 °FSunny.17 mph43%30.22 "Hg10 mi
1:35 PM86 °FSunny.16 mph43%30.23 "Hg10 mi
1:15 PM86 °FScattered clouds.12 mph43%30.23 "Hg10 mi
12:55 PM84 °FSunny.13 mph48%30.24 "Hg10 mi
12:35 PM82 °FSunny.21 mph48%30.24 "Hg10 mi
12:15 PM82 °FSunny.16 mph51%30.25 "Hg10 mi
11:55 AM81 °FSunny.13 mph54%30.26 "Hg10 mi
11:35 AM81 °FSunny.14 mph54%30.26 "Hg10 mi
11:15 AM81 °FSunny.9 mph54%30.27 "Hg10 mi
10:55 AM79 °FSunny.14 mph58%30.28 "Hg10 mi
10:35 AM79 °FSunny.13 mph58%30.28 "Hg10 mi
10:15 AM77 °FSunny.10 mph57%30.27 "Hg10 mi
9:55 AM73 °FSunny.9 mph65%30.27 "Hg10 mi
9:15 AM72 °FSunny.7 mph69%30.28 "Hg10 mi
8:55 AM70 °FSunny.6 mph73%30.29 "Hg10 mi
8:35 AM68 °FSunny.7 mph78%30.28 "Hg10 mi
8:15 AM68 °FSunny.6 mph78%30.28 "Hg10 mi
7:55 AM66 °FSunny.5 mph83%30.28 "Hg10 mi
7:35 AM64 °FSunny.6 mph88%30.28 "Hg10 mi
7:15 AM63 °FSunny.6 mph88%30.28 "Hg10 mi
6:55 AM61 °FSunny.6 mph94%30.27 "Hg10 mi
6:35 AM59 °FClear.3 mph100%30.26 "Hg10 mi
6:15 AM57 °FClear.3 mph94%30.26 "Hg10 mi
5:55 AM61 °FClear.3 mph88%30.25 "Hg10 mi
5:35 AM61 °FClear.3 mph94%30.24 "Hg10 mi
5:15 AM61 °FClear.6 mph94%30.24 "Hg10 mi
4:55 AM61 °FClear.5 mph94%30.25 "Hg10 mi
4:35 AM63 °FClear.5 mph88%30.25 "Hg10 mi
4:15 AM61 °FClear.3 mph94%30.26 "Hg10 mi
3:55 AM59 °FClear.No wind94%30.26 "Hg10 mi
3:15 AM61 °FClear.No wind88%30.25 "Hg10 mi
Weather by CustomWeather, © 2015

See weather overviewHow to use our weather pages